Location: Unspecified
(0.0000°N, 0.0000°E)
Time: 08:42:14
(UTC+00:00)

Courier 1B Rocket - All Passes

Search period start: 03 April 2020 00:00
Search period end: 13 April 2020 00:00
Orbit: 920 x 1202 km, 28.2° (Epoch: 02 April)

Date Brightness Start Highest point End Pass type
(mag) Time Alt. Az. Time Alt. Az. Time Alt. Az.
03 Apr - 01:16:58 10° SSW 01:21:41 20° SSE 01:26:15 10° ESE night (unlit)
03 Apr - 03:09:01 10° SW 03:15:24 74° SSE 03:21:37 10° ENE visible
03 Apr - 05:03:34 10° W 05:08:50 28° NNW 05:14:09 10° NNE visible
03 Apr - 12:45:00 10° NNW 12:50:11 20° NNE 12:55:33 10° ENE daylight
03 Apr - 14:36:46 10° NW 14:44:16 64° NNE 14:52:02 10° ESE daylight
03 Apr - 16:30:57 10° W 16:38:13 42° SSW 16:45:31 10° SE daylight
03 Apr - 18:28:52 10° SW 18:32:47 14° SSW 18:36:39 10° S visible
04 Apr - 00:16:52 10° S 00:20:18 14° SSE 00:23:38 10° SE night (unlit)
04 Apr - 02:08:06 10° SW 02:14:22 47° SSE 02:20:22 10° ENE visible
04 Apr - 04:01:48 10° W 04:07:46 44° NNW 04:13:40 10° NE visible
04 Apr - 05:59:20 10° NW 06:01:41 12° NNW 06:04:03 10° N daylight
04 Apr - 11:45:18 10° N 11:48:39 14° NNE 11:52:04 10° NE daylight
04 Apr - 13:35:58 10° NW 13:42:56 43° NNE 13:50:14 10° E daylight
04 Apr - 15:29:15 10° WNW 15:36:49 61° SSW 15:44:34 10° SE daylight
04 Apr - 17:25:36 10° WSW 17:31:07 21° SSW 17:36:37 10° SSE daylight
04 Apr - 23:18:13 10° SSE 23:18:44 10° SSE 23:19:14 10° SSE night (unlit)
05 Apr - 01:07:22 10° SW 01:13:14 32° SSE 01:18:49 10° E night (unlit)
05 Apr - 03:00:20 10° WSW 03:06:45 70° NNW 03:12:58 10° NE visible
05 Apr - 04:56:12 10° WNW 05:00:22 18° NNW 05:04:32 10° NNE visible
05 Apr - 12:35:28 10° NNW 12:41:36 29° NNE 12:48:01 10° E daylight
05 Apr - 14:27:56 10° WNW 14:35:28 87° SSW 14:43:20 10° ESE daylight
05 Apr - 16:23:02 10° W 16:29:33 29° SSW 16:36:08 10° SSE daylight
05 Apr - 18:24:19 10° SSW 18:24:33 10° SSW 18:24:47 10° SSW visible
06 Apr - 00:06:47 10° SSW 00:11:58 22° SSE 00:16:53 10° ESE night (unlit)
06 Apr - 01:59:07 10° SW 02:05:45 77° SSE 02:12:03 10° ENE visible
06 Apr - 03:53:52 10° W 03:59:12 28° NNW 04:04:26 10° NNE visible
06 Apr - 11:35:19 10° NNW 11:40:12 20° NNE 11:45:18 10° ENE daylight
06 Apr - 13:26:56 10° NW 13:34:09 65° NNE 13:41:50 10° ESE daylight
06 Apr - 15:21:01 10° W 15:28:04 41° SSW 15:35:22 10° SE daylight
06 Apr - 17:18:49 10° SW 17:22:43 14° SSW 17:26:38 10° S daylight
06 Apr - 23:06:28 10° SSW 23:10:31 16° SSE 23:14:25 10° ESE night (unlit)
07 Apr - 00:58:04 10° SW 01:04:41 50° SSE 01:10:52 10° ENE night (unlit)
07 Apr - 02:51:59 10° W 02:58:08 43° NNW 03:04:02 10° NE visible
07 Apr - 04:49:55 10° NW 04:52:01 12° NNW 04:54:07 10° N visible
07 Apr - 10:35:50 10° N 10:38:44 13° NNE 10:41:43 10° NE daylight
07 Apr - 12:26:14 10° NW 12:32:53 43° NNE 12:40:00 10° E daylight
07 Apr - 14:19:24 10° WNW 14:26:41 59° SSW 14:34:21 10° SE daylight
07 Apr - 16:15:39 10° WSW 16:21:01 20° SSW 16:26:28 10° SSE daylight
07 Apr - 22:06:43 10° S 22:08:53 11° SSE 22:11:01 10° SE night (unlit)
07 Apr - 23:57:12 10° SW 00:03:29 34° SSE 00:09:22 10° E night (unlit)
08 Apr - 01:50:24 10° WSW 01:57:06 68° NNW 02:03:24 10° NE night (unlit)
08 Apr - 03:46:31 10° WNW 03:50:42 18° NNW 03:54:51 10° NNE visible
08 Apr - 11:25:49 10° NNW 11:31:37 29° NNE 11:37:47 10° E daylight
08 Apr - 13:18:10 10° WNW 13:25:22 86° SSW 13:33:06 10° ESE daylight
08 Apr - 15:13:11 10° W 15:19:26 28° SSW 15:25:55 10° SSE daylight
08 Apr - 22:56:30 10° SSW 23:02:09 24° SSE 23:07:29 10° ESE night (unlit)
09 Apr - 00:49:03 10° WSW 00:56:02 80° SSE 01:02:31 10° ENE night (unlit)
09 Apr - 02:44:02 10° W 02:49:32 28° NNW 02:54:49 10° NNE visible
09 Apr - 10:25:46 10° NNW 10:30:20 19° NNE 10:35:05 10° ENE daylight
09 Apr - 12:17:14 10° NW 12:24:08 65° NNE 12:31:35 10° ESE daylight
09 Apr - 14:11:14 10° W 14:17:59 39° SSW 14:25:07 10° SE daylight
09 Apr - 16:08:59 10° SW 16:12:40 14° SSW 16:16:24 10° S daylight
09 Apr - 21:56:00 10° SSW 22:00:38 17° SSE 22:05:05 10° ESE night (unlit)
09 Apr - 23:47:54 10° SW 23:54:53 53° SSE 00:01:22 10° ENE night (unlit)
10 Apr - 01:42:01 10° W 01:48:26 43° NNW 01:54:28 10° NE night (unlit)
10 Apr - 03:40:11 10° NW 03:42:20 12° NNW 03:44:28 10° N visible
10 Apr - 09:26:29 10° N 09:28:56 12° NNE 09:31:26 10° NE daylight
10 Apr - 11:16:36 10° NW 11:22:57 43° NNE 11:29:47 10° E daylight
10 Apr - 13:09:42 10° WNW 13:16:38 57° SSW 13:24:04 10° SE daylight
10 Apr - 15:05:54 10° WSW 15:10:57 19° SSW 15:16:10 10° SSE daylight
10 Apr - 20:55:56 10° S 20:58:58 13° SSE 21:01:55 10° SE visible
10 Apr - 22:46:56 10° SW 22:53:37 36° SSE 22:59:52 10° E night (unlit)
11 Apr - 00:40:18 10° WSW 00:47:20 67° NNW 00:53:52 10° NE night (unlit)
11 Apr - 02:36:37 10° WNW 02:41:01 18° NNW 02:45:16 10° NNE visible
11 Apr - 10:16:15 10° NNW 10:21:46 28° NNE 10:27:37 10° E daylight
11 Apr - 12:08:31 10° WNW 12:15:23 84° SSW 12:22:50 10° ESE daylight
11 Apr - 14:03:29 10° W 14:09:23 26° SSW 14:15:36 10° SSE daylight
11 Apr - 21:46:09 10° SSW 21:52:13 26° SSE 21:57:59 10° E night (unlit)
11 Apr - 23:38:52 10° WSW 23:46:13 82° SSE 23:52:59 10° ENE night (unlit)
12 Apr - 01:34:01 10° W 01:39:48 28° NNW 01:45:17 10° NNE night (unlit)
12 Apr - 09:16:16 10° NNW 09:20:32 18° NNE 09:24:58 10° ENE daylight
12 Apr - 11:07:38 10° NW 11:14:14 66° NNE 11:21:22 10° ESE daylight
12 Apr - 13:01:36 10° W 13:07:59 37° SSW 13:14:48 10° SE daylight
12 Apr - 14:59:25 10° SW 15:02:39 13° SSW 15:05:55 10° S daylight
12 Apr - 20:45:36 10° SSW 20:50:40 19° SSE 20:55:35 10° ESE visible
12 Apr - 22:37:39 10° SW 22:44:59 56° SSE 22:51:49 10° ENE night (unlit)
